Lid_Strength_Index
7 7 7 7 8 8 8 8 10 9 9 7 7 6 5 5 5 5 5 4 4 4 4 2 3 2 1 2 1 0 1 1 1 0 -0 -0 -0 -0 -0 -0 -0 -1 -0 -1
8 7 7 8 7 7 7 7 8 8 8 5 5 5 5 5 5 5 5 4 4 4 3 3 3 2 2 2 1 1 1 1 0 1 0 0 0 0 -0 -0 -0 -0 -0 -0
10 8 8 10 8 7 7 7 7 9 7 6 6 6 6 5 5 5 5 4 4 3 3 3 3 2 2 2 1 1 1 1 1 1 1 1 0 0 1 0 -0 0 0 -0
10 9 14 7 6 6 7 6 6 6 6 6 6 5 4 4 4 5 4 4 3 3 3 2 2 2 2 2 2 1 1 1 1 1 1 1 1 1 1 0 1 0 0 0
11 11 9 8 7 7 7 7 5 6 6 6 5 5 6 4 4 4 4 3 3 3 2 2 2 2 2 2 2 2 2 2 1 1 1 1 1 1 0 0 1 1 0 0
9 12 13 7 5 4 5 9 5 5 6 6 6 9 7 4 3 3 3 3 3 2 2 2 2 1 2 2 2 3 2 2 1 1 1 1 1 1 1 0 0 1 0 0
10 11 9 6 5 5 10 8 5 4 5 5 7 5 4 3 3 3 3 3 2 2 2 2 1 1 2 2 2 1 1 1 1 1 1 1 1 1 1 1 1 1 1 2
9 11 12 5 5 8 5 4 4 4 4 5 4 4 4 4 3 3 3 2 2 2 2 1 1 1 2 2 1 1 1 1 1 1 1 1 1 1 1 1 2 2 3 4
8 9 5 4 4 3 4 4 4 4 4 4 4 4 4 4 3 3 2 2 2 2 2 1 1 1 2 2 1 1 1 1 2 3 2 2 2 2 3 2 3 4 4 4
8 6 6 5 4 3 3 4 3 3 4 3 4 4 4 3 3 3 2 2 2 2 2 2 1 1 1 1 1 1 2 3 4 4 5 4 3 2 2 2 2 2 3 4
7 7 6 4 4 4 4 3 3 3 3 3 3 3 3 3 3 3 2 2 2 1 2 2 1 1 1 1 1 3 4 4 4 4 4 6 7 5 3 5 7 1 1 2
7 6 6 6 4 3 4 4 3 3 3 3 3 3 3 3 3 2 2 2 2 1 2 2 1 1 1 1 1 2 4 2 2 1 1 3 4 6 11 11 12 12 11 5
6 4 4 4 3 3 3 3 3 3 3 3 2 2 2 3 2 3 2 2 2 2 1 1 1 1 1 0 1 2 3 4 4 4 4 4 3 3 4 8 11 12 13 13
4 4 6 4 5 3 3 3 3 2 2 2 2 2 2 2 2 2 2 2 1 1 1 1 1 2 0 0 1 1 1 5 2 2 3 3 2 3 2 2 3 3 10 9
4 4 3 3 3 3 2 3 3 3 3 2 2 2 2 3 3 2 1 1 1 1 1 1 2 1 0 0 1 1 1 1 1 2 2 3 2 1 2 2 2 3 3 8
4 3 3 4 4 3 3 3 3 3 3 2 2 2 2 2 2 2 1 1 2 2 1 1 1 1 0 0 1 1 1 2 1 1 1 1 1 1 1 1 1 1 1 2
5 5 4 4 4 4 3 3 2 3 2 2 2 2 2 2 2 2 1 1 1 1 1 1 1 -0 -0 -0 0 0 1 1 2 0 1 1 1 1 0 1 1 1 1 1
3 3 3 3 3 3 3 3 2 2 2 2 1 2 2 2 2 2 1 1 1 1 1 0 -0 -0 -0 -0 -0 -0 0 0 0 1 0 0 0 -0 0 0 0 0 0 2
3 3 3 3 3 2 3 2 2 2 2 2 2 2 2 2 2 1 1 1 2 2 1 -0 1 0 -0 -0 -0 -0 -0 0 0 0 0 1 1 0 0 -0 0 -0 -0 0
3 3 3 3 2 2 2 2 2 2 2 2 2 2 2 2 1 1 1 2 1 1 -0 -0 0 0 -0 0 0 0 0 0 0 0 0 1 0 0 0 2 0 0 0 0
3 3 3 2 2 2 2 1 2 2 2 2 2 2 2 2 1 1 2 3 1 0 -0 1 0 0 -0 0 0 0 0 0 0 1 1 1 1 1 0 0 0 0 0 0
3 3 2 2 2 2 2 1 1 2 2 2 2 1 2 2 2 2 1 1 1 4 1 0 0 1 0 0 -0 0 0 0 0 0 1 0 1 1 1 0 0 0 0 0
2 2 2 2 2 2 2 2 2 2 2 2 2 2 2 2 2 2 3 1 0 1 0 0 1 2 2 0 -0 0 0 0 0 0 0 0 0 0 0 0 0 0 0 -0
2 2 2 2 2 2 3 2 1 1 1 1 1 1 1 2 1 1 0 3 3 2 1 0 1 4 3 0 0 0 0 0 0 0 0 4 0 0 0 0 0 -0 -0 1
3 2 2 2 3 3 2 2 2 1 1 1 1 1 0 0 1 1 0 0 4 2 0 3 4 4 0 0 0 0 0 0 0 0 0 0 0 0 -0 -0 -0 -0 -0 -0
3 3 3 2 2 2 2 2 2 2 2 2 2 1 1 0 0 0 0 1 0 1 0 0 0 0 0 -0 0 -0 0 0 0 0 0 0 -0 -0 0 -0 0 0 -0 -0
3 5 2 2 1 1 1 2 2 2 2 2 2 1 1 1 1 1 2 0 0 0 0 -0 0 1 -0 -0 0 -0 -0 -0 2 -0 -0 -0 -0 -0 -0 -0 -0 -0 -1 -0